LRBS Weather Reports


Display with metric or nautical units.
time (UTC)temp
F
wind
direction
speed
MPH
gust
MPH
rain 1hr
in
rain 24hr
in
rain mn
in
humidity
%
barometer
mb
20260906124808 84 270 7.0 0.0 0.00 0.00 0.00 29 1018.0
20260906123311 84 270 7.0 0.0 0.00 0.00 0.00 29 1018.0
20260906114814 82 9.0 0.0 0.00 0.00 0.00 32 1019.0
20260906113314 82 9.0 0.0 0.00 0.00 0.00 32 1019.0
20260906111812 81 260 11.0 0.0 0.00 0.00 0.00 32 1020.0
20260906110315 81 260 11.0 0.0 0.00 0.00 0.00 32 1020.0
20260906104814 81 9.0 0.0 0.00 0.00 0.00 34 1020.0
20260906103314 81 9.0 0.0 0.00 0.00 0.00 34 1020.0
20260906100315 77 6.0 0.0 0.00 0.00 0.00 42 1020.0
20260906094815 77 6.0 0.0 0.00 0.00 0.00 42 1020.0
20260906093314 77 6.0 0.0 0.00 0.00 0.00 42 1020.0
20260906091816 77 240 6.0 0.0 0.00 0.00 0.00 42 1020.0
20260906090316 77 240 6.0 0.0 0.00 0.00 0.00 42 1020.0
20260906084815 77 2.0 0.0 0.00 0.00 0.00 42 1020.0
20260906083314 77 2.0 0.0 0.00 0.00 0.00 42 1020.0
20260906081814 73 180 5.0 0.0 0.00 0.00 0.00 47 1021.0
20260906080314 73 180 5.0 0.0 0.00 0.00 0.00 47 1021.0
20260906074814 73 2.0 0.0 0.00 0.00 0.00 50 1021.0
20260906073314 73 2.0 0.0 0.00 0.00 0.00 50 1021.0
20260906071815 72 60 8.0 0.0 0.00 0.00 0.00 53 1020.0
20260906070314 72 60 8.0 0.0 0.00 0.00 0.00 53 1020.0
20260906064813 70 70 8.0 0.0 0.00 0.00 0.00 57 1020.0
20260906063314 70 70 8.0 0.0 0.00 0.00 0.00 57 1020.0
20260906061929 70 90 8.0 0.0 0.00 0.00 0.00 57 1020.0
20260906060314 70 90 8.0 0.0 0.00 0.00 0.00 57 1020.0
20260906054839 68 90 7.0 0.0 0.00 0.00 0.00 60 1019.0
20260906053314 68 90 7.0 0.0 0.00 0.00 0.00 60 1019.0
20260906051814 66 80 7.0 0.0 0.00 0.00 0.00 64 1019.0
20260906050429 66 80 7.0 0.0 0.00 0.00 0.00 64
20260906044929 64 90 7.0 0.0 0.00 0.00 0.00 64 1019.0
20260906043418 64 70 7.0 0.0 0.00 0.00 0.00 64 1018.0
20260906041930 64 70 7.0 0.0 0.00 0.00 0.00 64 1018.0
20260906040334 64 70 7.0 0.0 0.00 0.00 0.00 64 1018.0
20260906034829 64 80 10.0 0.0 0.00 0.00 0.00 64 1018.0
20260906033430 66 60 9.0 0.0 0.00 0.00 0.00 64 1018.0
20260906031929 66 60 9.0 0.0 0.00 0.00 0.00 64 1018.0
20260906030429 66 60 9.0 0.0 0.00 0.00 0.00 64 1018.0
20260906024841 66 70 11.0 0.0 0.00 0.00 0.00 64 1017.0
20260906023314 66 70 11.0 0.0 0.00 0.00 0.00 64 1017.0
20260906021821 66 70 11.0 0.0 0.00 0.00 0.00 68 1017.0
20260906020315 66 70 11.0 0.0 0.00 0.00 0.00 68 1017.0
20260906014815 68 70 10.0 0.0 0.00 0.00 0.00 69 1016.0
20260906013429 68 70 10.0 0.0 0.00 0.00 0.00 69 1016.0
20260906011814 68 60 13.0 0.0 0.00 0.00 0.00 64 1016.0
20260906010314 68 60 13.0 0.0 0.00 0.00 0.00 64 1016.0
20260906004930 70 70 14.0 0.0 0.00 0.00 0.00 60 1015.0
20260906003440 70 70 14.0 0.0 0.00 0.00 0.00 60 1015.0
20260906001929 70 70 13.0 0.0 0.00 0.00 0.00 60 1015.0
20260906000419 70 70 13.0 0.0 0.00 0.00 0.00 60 1015.0
20260905234824 70 80 10.0 0.0 0.00 0.00 0.00 64 1015.0
20260905233314 70 80 10.0 0.0 0.00 0.00 0.00 64 1015.0
20260905231930 70 70 11.0 0.0 0.00 0.00 0.00 64 1015.0
20260905230346 70 70 11.0 0.0 0.00 0.00 0.00 64 1015.0
20260905224930 73 30 3.0 0.0 0.00 0.00 0.00 57 1015.0
20260905223328 73 30 3.0 0.0 0.00 0.00 0.00 57 1015.0
20260905221915 72 2.0 0.0 0.00 0.00 0.00 57 1014.0
20260905220430 72 2.0 0.0 0.00 0.00 0.00 57 1014.0
20260905214929 72 1.0 0.0 0.00 0.00 0.00 65 1014.0
20260905213314 72 1.0 0.0 0.00 0.00 0.00 65 1014.0
20260905211814 72 270 2.0 0.0 0.00 0.00 0.00 65 1014.0
20260905210314 72 270 2.0 0.0 0.00 0.00 0.00 65 1014.0
20260905204824 72 290 1.0 0.0 0.00 0.00 0.00 65 1014.0
20260905203314 72 290 1.0 0.0 0.00 0.00 0.00 65 1014.0
20260905201814 72 280 1.0 0.0 0.00 0.00 0.00 65 1014.0
20260905200430 72 280 1.0 0.0 0.00 0.00 0.00 65 1014.0
20260905194921 73 0 0.0 0.0 0.00 0.00 0.00 61 1014.0
20260905193314 73 0 0.0 0.0 0.00 0.00 0.00 61 1014.0
20260905191843 77 0 0.0 0.0 0.00 0.00 0.00 47 1014.0
20260905190315 77 0 0.0 0.0 0.00 0.00 0.00 47 1014.0
20260905184815 77 0 0.0 0.0 0.00 0.00 0.00 51 1014.0
20260905183319 77 0 0.0 0.0 0.00 0.00 0.00 51 1014.0
20260905181814 81 0 0.0 0.0 0.00 0.00 0.00 45 1014.0
20260905180314 81 0 0.0 0.0 0.00 0.00 0.00 45 1014.0
20260905174814 82 230 2.0 0.0 0.00 0.00 0.00 40 1014.0
20260905173314 82 230 2.0 0.0 0.00 0.00 0.00 40 1014.0
20260905171825 84 210 3.0 0.0 0.00 0.00 0.00 37 1013.0
20260905170314 84 210 3.0 0.0 0.00 0.00 0.00 37 1013.0
20260905164814 88 260 3.0 0.0 0.00 0.00 0.00 31 1013.0
20260905163315 88 260 3.0 0.0 0.00 0.00 0.00 31 1013.0
20260905161815 90 280 6.0 0.0 0.00 0.00 0.00 29 1013.0
20260905160315 90 280 6.0 0.0 0.00 0.00 0.00 29 1013.0
20260905154831 90 270 5.0 0.0 0.00 0.00 0.00 29 1014.0
20260905153314 90 270 5.0 0.0 0.00 0.00 0.00 29 1014.0
20260905151815 91 280 5.0 0.0 0.00 0.00 0.00 28 1014.0
20260905150315 91 280 5.0 0.0 0.00 0.00 0.00 28 1014.0
20260905144814 91 260 8.0 0.0 0.00 0.00 0.00 28 1014.0
20260905143314 91 260 8.0 0.0 0.00 0.00 0.00 28 1014.0
20260905141815 91 260 8.0 0.0 0.00 0.00 0.00 28 1014.0
20260905140314 91 260 8.0 0.0 0.00 0.00 0.00 28 1014.0
20260905134927 91 250 8.0 0.0 0.00 0.00 0.00 28 1014.0
20260905133314 91 250 8.0 0.0 0.00 0.00 0.00 28 1014.0
20260905131817 91 260 10.0 0.0 0.00 0.00 0.00 30 1014.0
20260905130336 91 260 10.0 0.0 0.00 0.00 0.00 30 1014.0